Погода в Чакино

Россия / Тамбовская область     52°14′01″N   41°57′07″E
темп.,
°C
ветер,
м/с
пор.,
м/с
влажн.,
%
обл.,
%
осадки,
мм/ч
давл.,
гПа
погр.,
м
18 октября, пн
пн1800:00+7зсз228384 0.0 101513
03:00+6сз339070 0.0 101436
06:00+4сз348811 0.0 101455
09:00+7зсз357489 0.0 1014266
12:00+10зсз565597 0.0 10141315
15:00+10з574374 0.0 10131616
18:00+7зсз4105683 0.0 1013271
21:00+6з3874100 0.0 1014255
19 октября, вт
вт1900:00+5зсз3678100 0.0 1014164
03:00+5зсз2584100 0.0 1014163
06:00+4сз3588100 0.0 1014133
09:00+5сз3572100 0.0 1015388
12:00+8сз4555100 0.0 10141195
15:00+8сз564796 0.0 10141583
18:00+5ссз576498 0.0 1016645
21:00+3сз367412 0.0 1016155
20 октября, ср
ср2000:00+1сз489193 0.0 1017296
03:00+1сз4882100 0.0 1018480
06:00+1сз488977 0.0 1020475
09:00+2ссз577946 0.0 1021676
12:00+5ссз565686 0.1 10221271
15:00+5сз565295 0.1 10231305
18:00+2зсз357066 0.0 1024106
21:000зюз227623 0.0 102433
21 октября, чт
чт2100:000ююз3678100 0.0 1023128
03:000ююз41068100 0.0 1022238
06:00+3ююз61451100 0.0 1019408
09:00+3ююз71678100 1.2 1017551
12:00+8юз91366100 0.2 1015669
15:00+12юз7146179 0.2 1013888
18:00+12юз81664100 0.2 1012639
21:00+11юз8176799 0.2 1011631
22 октября, пт
пт2200:00+10юз81766100 0.0 1010615
03:00+10юз81766100 0.0 1009608
06:00+9юз81669100 0.0 1009574
09:00+10зюз81670100 0.0 1009633
12:00+13зюз91266100 0.0 1009818
15:00+14зюз71262100 0.0 1009990
18:00+12зюз5127172 0.0 1012430
21:00+9зюз4118120 0.0 1013228